Flag for Russia Weather past 2 weeks in Kaliningrad, Russia

Now
41 °F

Clear.


Feels Like: 37 °F
Forecast: 39 / 49 °F
Wind: 6 mph from Northeast

Location: Kaliningrad/Khrabrovo Airport

Current Time: Apr 19, 2015 at 7:20:57 AM

Latest Report: Apr 19, 2015 at 6:30 AM


Visibility: 10 mi

Pressure: 30.04 "Hg

Humidity: 87%

Dew point: 37 °F

Location of KaliningradLocation

Historic Weather in Kaliningrad — Graph

°F

Kaliningrad temperature yesterday

Maximum temperature yesterday: 45 °F (at 11:00 AM)
Minimum temperature yesterday: 39 °F (at 12:00 AM)
Average temperature yesterday: 42 °F

Past Weeks' High & Low Weather Summary

 TemperatureHumidityPressure
High68 °F (Apr 11, 1:30 PM)100% (Apr 6, 11:00 PM)30.48 "Hg (Apr 6, 11:00 PM)
Low30 °F (Apr 9, 5:00 AM)21% (Apr 9, 6:00 PM)29.50 "Hg (Apr 16, 12:00 AM)
Average44 °F75%30.04 "Hg
* Reported Apr 4 6:00 AM — Apr 19 6:00 AM, Kaliningrad, Weather by CustomWeather, © 2015

Note: Actual official high and low records may vary slightly from our data, if they occured in-between our weather recording intervals... More about our weather records

Advertising

Kaliningrad weather history for previous 24 hours

 ConditionsComfort  
Time TempWeatherWind HumidityBarometerVisibility
6:00 AM
Sun, Apr 19
41 °FClear.6 mph87%30.04 "Hg10 mi
5:30 AM41 °FClear.8 mph81%30.04 "Hg10 mi
5:00 AM41 °FClear.8 mph81%30.04 "Hg10 mi
4:30 AM41 °FClear.8 mph81%30.04 "Hg10 mi
4:00 AM41 °FClear.10 mph81%30.04 "Hg10 mi
3:00 AM41 °FClear.8 mph81%30.04 "Hg10 mi
1:00 AM41 °FPassing clouds.6 mph81%30.04 "HgN/A
12:00 AM41 °FPassing clouds.6 mph81%30.04 "HgN/A
11:30 PM
Sat, Apr 18
41 °FPassing clouds.8 mph81%30.04 "HgN/A
11:00 PM41 °FPassing clouds.6 mph81%30.07 "HgN/A
10:00 PM41 °FPassing clouds.8 mph87%30.07 "HgN/A
9:30 PM41 °FPassing clouds.8 mph87%30.07 "HgN/A
9:00 PM41 °FPassing clouds.6 mph87%30.07 "HgN/A
8:30 PM41 °FSunny.6 mph81%30.07 "Hg10 mi
8:00 PM41 °FOvercast.8 mph87%30.07 "HgN/A
7:30 PM41 °FPartly sunny.10 mph87%30.07 "HgN/A
7:00 PM41 °FPartly sunny.10 mph87%30.07 "HgN/A
6:00 PM43 °FPartly sunny.10 mph76%30.07 "HgN/A
5:30 PM43 °FPartly sunny.10 mph76%30.07 "HgN/A
5:00 PM43 °FPartly sunny.13 mph81%30.07 "HgN/A
4:30 PM43 °FPartly sunny.13 mph81%30.07 "HgN/A
4:00 PM43 °FMostly cloudy.13 mph81%30.07 "HgN/A
3:30 PM43 °FMostly cloudy.13 mph81%30.07 "HgN/A
3:00 PM43 °FMostly cloudy.15 mph81%30.07 "HgN/A
2:30 PM43 °FMostly cloudy.15 mph81%30.07 "HgN/A
2:00 PM43 °FMostly cloudy.15 mph81%30.07 "HgN/A
1:30 PM45 °FMostly cloudy.15 mph81%30.07 "HgN/A
1:00 PM43 °FMostly cloudy.15 mph81%30.07 "HgN/A
12:00 PM45 °FMostly cloudy.15 mph76%30.07 "HgN/A
11:30 AM43 °FMore clouds than sun.15 mph81%30.07 "HgN/A
11:00 AM45 °FMore clouds than sun.15 mph76%30.07 "HgN/A
10:30 AM43 °FMostly cloudy.13 mph81%30.07 "HgN/A
10:00 AM43 °FBroken clouds.13 mph76%30.07 "HgN/A
9:30 AM43 °FBroken clouds.13 mph76%30.04 "HgN/A
9:00 AM43 °FScattered clouds.15 mph76%30.04 "HgN/A
8:30 AM41 °FScattered clouds.15 mph81%30.04 "HgN/A
8:00 AM41 °FScattered clouds.13 mph81%30.04 "HgN/A
7:30 AM41 °FBroken clouds.15 mph81%30.01 "HgN/A
7:00 AM41 °FPassing clouds.13 mph81%30.01 "HgN/A
Weather by CustomWeather, © 2015

See weather overviewHow to use our weather pages